Location: Unspecified
(0.0000°N, 0.0000°E)
Time: 09:35:51
(UTC+00:00)

A-11 Canister half - Pass Details

Date: 08 August 2021
Orbit: 1526 x 1683 km, 47.3° (Epoch: 27 September)

Event Time Altitude Azimuth Distance (km) Brightness Sun altitude
Rises 05:17:15 0° 207° (SSW) 4,785 11.2 -11.6°
Reaches altitude 10° 05:20:31 10° 200° (SSW) 3,821 10.7 -10.8°
Maximum altitude 05:29:44 46° 130° (SE) 2,103 10.0 -8.6°
Drops below altitude 10° 05:39:09 10° 60° (ENE) 3,918 12.7 -6.4°
Sets 05:42:30 0° 54° (NE) 4,915 13.3 -5.6°
